Voltar ao catálogo

STARLINK-37323

AtivoComunicaçõesVLEO
NORAD 69516·PAYLOAD·🇺🇸 United States

Lançado Jun 12, 2026 de Cape Canaveral Space Force Station

Loading…

Próximas Passagens (próximas 24 horas)

TLE

AtualizadoSource: CelesTrak SupGP

Época: Sep 14, 2026, 22:30 UTC

1 69516C 26133J   26257.93798611  .00039276  00000+0  11609-2 0  2570
2 69516  53.1561 255.7866 0001198  98.8671  94.6689 15.34358384    14

Acompanhe STARLINK-37323 em tempo real com AllMySat

Download on the App Store